Regional Weather Roundup
Issued by NWS Boston, MA

Home | Current Version | Previous Version | Text Only | Print | Product List | Glossary On
Versions: 1 2 3 4 5 6 7 8 9 10 11 12 13 14 15 16 17 18 19 20 21 22 23 24 25 26 27 28
000
ASUS41 KBOX 280610
RWRBOX

REGIONAL WEATHER ROUNDUP
NATIONAL WEATHER SERVICE TAUNTON MA
200 AM EDT SAT MAY 28 2016

NOTE:  "FAIR" INDICATES FEW OR NO CLOUDS BELOW 12,000 FEET WITH NO
SIGNIFICANT WEATHER AND/OR OBSTRUCTIONS TO VISIBILITY.  THE FOLLOWING
OBSERVATION LOCATIONS DO NOT REPORT PRESENT WEATHER...PROVINCETOWN...
SMITHFIELD...BLOCK ISLAND...KEENE...AND OXFORD.

MAZALL-280700-
EASTERN MASSACHUSETTS

CITY           SKY/WX    TMP DP  RH WIND       PRES   REMARKS
BOSTON         MOCLDY    68  59  73 SW9       30.03F
6HR MIN TEMP:  59; 6HR MAX TEMP:  73;

BEVERLY        MOCLDY    69  61  75 SW9       30.01F
LAWRENCE       CLOUDY    69  62  78 SW8       30.03F
BEDFORD        MOCLDY    69  62  78 SW8       30.01F
BLUE HILL        N/A     64  57  78 SW17      30.05F
NORWOOD        PTCLDY    66  59  78 S7        30.04F
MARSHFIELD     CLOUDY    68  55  64 SW9G17    30.04S
PLYMOUTH       CLEAR     66  55  67 SW13      30.07F
TAUNTON        CLEAR     67  54  63 VRB7      30.06F
NEW BEDFORD    PTCLDY    64  55  72 SW12      30.07F
$$

MAZALL-280700-
CAPE COD AND THE ISLANDS

CITY           SKY/WX    TMP DP  RH WIND       PRES   REMARKS
FALMOUTH       MOCLDY    64  57  77 SW17G24   30.09F
HYANNIS        CLEAR     64  57  78 SW14G26   30.08F
CHATHAM        CLEAR     61  58  90 VRB7G17   30.10F
PROVINCETOWN   CLEAR     60  56  86 SW12G20   30.07F
NANTUCKET      PTCLDY    59  56  89 SW8       30.13S
MARTHAS VNYRD  CLEAR     60  57  89 SW10      30.11F
$$

MAZALL-280700-
CENTRAL AND WESTERN MASSACHUSETTS

CITY           SKY/WX    TMP DP  RH WIND       PRES   REMARKS
WORCESTER      CLEAR     65  60  84 SW10      30.06F
6HR MIN TEMP:  65; 6HR MAX TEMP:  76;

FITCHBURG      PTCLDY    70  62  76 VRB3      30.03F
ORANGE         CLOUDY    67  62  84 S7        30.05S
SPRINGFIELD    CLEAR     66  60  80 SW5       30.04S
WESTFIELD      CLEAR     65  62  90 CALM      30.05S
NORTH ADAMS    FOG       66  65  96 CALM      30.06S VSB 1
PITTSFIELD     PTCLDY    67  63  87 SW6       30.07S
$$

RIZALL-280700-
RHODE ISLAND

CITY           SKY/WX    TMP DP  RH WIND       PRES   REMARKS
PROVIDENCE     CLEAR     65  55  70 S8        30.08S
6HR MIN TEMP:  65; 6HR MAX TEMP:  75;

NEWPORT        PTCLDY    62  55  77 SW9G21    30.09S
BLOCK ISLAND   TSTM      62  60  93 SW26G36   30.12S FOG
SMITHFIELD       N/A    N/A N/A N/A MISG        N/A
WESTERLY       MOCLDY    64  54  69 S8        30.09F
$$

CTZALL-280700-
CONNECTICUT

CITY           SKY/WX    TMP DP  RH WIND       PRES   REMARKS
BRADLEY INTL   PTCLDY    67  60  78 S8        30.04F
6HR MIN TEMP:  67; 6HR MAX TEMP:  79;

HARTFORD       CLEAR     69  59  70 S6        30.05F
BRIDGEPORT     PTCLDY    67  59  75 SW6       30.07F
DANBURY        CLEAR     65  62  90 CALM      30.09S
GROTON         PTCLDY    61  57  87 S3        30.08S
NEW HAVEN      MOCLDY    66  59  78 S6        30.07F
CHESTER        FAIR      66  59  77 SW8       30.08S
MERIDEN        CLEAR     65  59  81 S3        30.07S
WILLIMANTIC    CLEAR     67  58  72 CALM      30.07F
OXFORD           N/A     64  59  82 CALM      30.09S
$$

MEZ002-015-021-024-NHZ003-005-008-011-012-014-VTZ005-008-280700-
NORTHERN NEW ENGLAND

CITY           SKY/WX    TMP DP  RH WIND       PRES   REMARKS
PORTLAND ME    PTCLDY    53  52  96 CALM      30.02S FOG
6HR MIN TEMP:  52; 6HR MAX TEMP:  54; 6HR PCP: TRACE;

BANGOR ME      CLOUDY    55  52  89 SW3       30.01R FOG
CONCORD NH     CLEAR     63  59  87 CALM      30.02S
MANCHESTER NH  MOCLDY    70  62  76 CALM      30.00S
NASHUA NH      CLEAR     70  64  81 CALM      30.02S
PORTSMOUTH NH  MOCLDY    54  52  94 CALM      30.01S
JAFFREY NH     CLEAR     67  62  84 SW5       30.06F
KEENE NH       PTCLDY   N/A N/A N/A CALM      30.05S
BURLINGTON VT  MOCLDY    75  65  70 S5        29.99S
MT. WASHINGTON FOG       55  55 100 W39G46      N/A  VSB 0
$$

NYZ052-076-280700-
EASTERN NEW YORK

CITY           SKY/WX    TMP DP  RH WIND       PRES   REMARKS
ALBANY         PTCLDY    70  66  87 CALM      30.04R
6HR MIN TEMP:  70; 6HR MAX TEMP:  79; 6HR PCP: TRACE;

NEW YORK CITY  PTCLDY    75  66  73 SW10G18   30.07S
6HR MIN TEMP:  74; 6HR MAX TEMP:  77;

$$

ANZALL-280700-
MARINE OBSERVATIONS

STATION/POSITION TIME  TEMP    WIND        PRES    VSBY  WAVE
                       AIR SEA DIR/SP/G                  HT/PER
                 (UTC) (F)     (DEG/KT/KT) (MB)    (MI)  (FT/S)
BOSTON BUOY      0550   63 57  190/  8/ 10 1016.9F         2/ 3
BUZZARDS BAY     0500   60     220/ 16/ 17 1019.8F
NANTUCKET SOUND  0550   60 57  230/ 14/ 16 1019.3F         1/ 3
MASS BAY-STELLWA 0504   59 56                N/A    1 7/8
ISLE OF SHOALS   0600   53      10/  2/  3 1016.3F
S OF BLOCK IS    0525      55                N/A           3/ 6
$$

......................KEY.........................
  SKY/WX - SKY CONDITION/PRESENT WEATHER
  TMP    - TEMPERATURE IN FAHRENHEIT
  DWPT   - DEWPOINT IN FAHRENHEIT
  RH     - RELATIVE HUMIDITY IN PERCENT
  WIND   - DIRECTION AND SPEED IN MPH
  PRES   - MEAN SEA LEVEL PRESSURE IN INCHES OF HG
  WCI    - WIND CHILL INDEX
  VSB    - VISIBILITY IN MILES
  HX     - HEAT INDEX
  TC     - TEMPERATURE IN CELSIUS
  VRB    - VARIABLE WIND DIRECTION
  N/A    - NOT AVAILABLE




USA.gov is the U.S. government's official web portal to all federal, state and local government web resources and services.